This is the latest recevied weather packets stored in our database for station/object W4DEX-2. If no packets are shown the sender has not sent any weather packets the latest 10 day(s).
| Time | Temp. | Humidity | Pressure | Rain* | Wind** | Luminosity | Snow |
|---|---|---|---|---|---|---|---|
| 1778060702 | 15.56° C | 73% | 1013.1 hPa | 0 mm | 6.71 m/s, 175° | - | - |
| 1778060102 | 16.11° C | 73% | 1013.4 hPa | 0 mm | 4.47 m/s, 174° | - | - |
| 1778059802 | 16.11° C | 72% | 1013.4 hPa | 0 mm | 5.36 m/s, 175° | - | - |
| 1778059203 | 16.11° C | 72% | 1013.4 hPa | 0 mm | 4.92 m/s, 180° | - | - |
| 1778058902 | 16.11° C | 72% | 1013.3 hPa | 0 mm | 5.36 m/s, 173° | - | - |
| 1778058602 | 16.11° C | 72% | 1013.4 hPa | 0 mm | 4.92 m/s, 172° | - | - |
| 1778058003 | 16.11° C | 71% | 1013.5 hPa | 0 mm | 4.92 m/s, 174° | - | - |
| 1778057702 | 16.11° C | 71% | 1013.6 hPa | 0 mm | 4.92 m/s, 164° | - | - |
| 1778057402 | 16.67° C | 71% | 1013.5 hPa | 0 mm | 5.36 m/s, 170° | - | - |
| 1778057103 | 16.67° C | 71% | 1013.5 hPa | 0 mm | 4.92 m/s, 176° | - | - |
| 1778056803 | 16.67° C | 70% | 1013.5 hPa | 0 mm | 5.36 m/s, 175° | - | - |
| 1778056502 | 16.67° C | 70% | 1013.5 hPa | 0 mm | 5.81 m/s, 173° | - | - |
| 1778056202 | 16.67° C | 70% | 1013.7 hPa | 0 mm | 5.36 m/s, 175° | - | - |
| 1778055903 | 16.67° C | 70% | 1013.8 hPa | 0 mm | 5.81 m/s, 178° | - | - |
| 1778055302 | 16.67° C | 70% | 1013.8 hPa | 0 mm | 5.36 m/s, 176° | - | - |
| 1778055002 | 16.67° C | 70% | 1013.8 hPa | 0 mm | 4.92 m/s, 180° | - | - |
| 1778054702 | 16.11° C | 70% | 1013.8 hPa | 0 mm | 5.81 m/s, 174° | - | - |
| 1778054102 | 16.67° C | 70% | 1013.8 hPa | 0 mm | 4.92 m/s, 177° | - | - |
| 1778053802 | 16.67° C | 70% | 1013.8 hPa | 0 mm | 5.36 m/s, 175° | - | - |
| 1778053502 | 16.67° C | 69% | 1013.8 hPa | 0 mm | 5.36 m/s, 180° | - | - |
| 1778052902 | 16.67° C | 69% | 1013.6 hPa | 0 mm | 5.81 m/s, 177° | - | - |
| 1778052602 | 16.67° C | 69% | 1013.4 hPa | 0 mm | 5.36 m/s, 176° | - | - |
| 1778052302 | 16.67° C | 69% | 1013.2 hPa | 0 mm | 4.92 m/s, 176° | - | - |
| 1778051702 | 16.67° C | 69% | 1013.4 hPa | 0 mm | 5.81 m/s, 178° | - | - |
| 1778051402 | 16.67° C | 69% | 1013.5 hPa | 0 mm | 5.81 m/s, 180° | - | - |
* Rain latest hour (hover to see other rain measurements)
** Current wind speed in m/s (hover to see current wind gust speed)